Simultaneous Nadir Overpasses (SNOs) Predictions

Prediction of SNOs between GOES-16 and FY3D Satellite Orbit:

Table of predicted SNOs for the next 14.0 days since TLE Epoch: 2/4/2023
Index Date Time (GOES-16) GOES-16 Lat,Lon FY3D Lat,Lon Distance(km) Time Diff (sec)
1 02/04/2023 19:10:57 0.05, -75.19 -0.64, -78.12 335.11 80
2 02/05/2023 18:55:17 0.05, -75.19 0.42, -73.69 172.05 80
3 02/07/2023 07:17:42 -0.05, -75.21 0.84, -79.08 441.49 80
4 02/08/2023 06:56:41 -0.04, -75.22 -0.16, -74.64 65.94 80
5 02/10/2023 19:00:54 0.04, -75.24 -0.03, -75.63 43.89 80
6 02/11/2023 18:45:14 0.04, -75.26 0.97, -71.19 464.08 80
7 02/13/2023 07:07:38 -0.04, -75.28 0.28, -76.58 148.36 80
8 02/14/2023 06:46:37 -0.04, -75.29 -0.72, -72.13 359.54 80
9 02/15/2023 19:09:10 0.03, -75.31 -0.50, -77.56 257.71 80
10 02/16/2023 18:53:29 0.02, -75.32 0.51, -73.12 250.54 80
